Find Starlink 11603

NORAD ID: 63671 Int'l Des: 2025-085 Owner: SPXS Country: US Constellation: starlink operational
LEOCIRCULAR

Live Position

Loading 3D Globe...

About Starlink 11603

Description loading...

Upcoming Passes

Passes for default location (London). Set your location on the main map for personalized predictions.

Altitude History

Loading altitude history...

Two-Line Element Set

1 63671U 25085H 26126.50498882 .00153897 00000-0 11792-2 0 9999
2 63671 43.0004 290.0164 0001629 261.7670 98.3013 15.70871554 59332
Epoch: May 6, 2026 • Age: 10 hours

Current Status

Altitude 357.6 km
Velocity 7.70 km/s
Sub-Earth Point 31.64°N, 125.65°W
Launch Date Apr 28, 2025
Age 1 years
Type internet

Technical Details

Classification Payload
Mass 960.00 kg
Dry Mass 910.00 kg
Total Mass 960.00 kg
Length 0.30 m
Diameter 4.10 m
Span 29.00 m
Shape Box + pan
Manufacturer SPXS
Bus Type Starlink V2MD
Phase Status In Orbit
Owner/State SPXS/US

Most Searched